Preview of NWS' New Version of Forecast
This preview is not operational and should not be used for support decisions.

Regional Weather Roundup (RWR)

Issued by National Weather Service (NWS)

                            
000
ASCA42 TJSJ 181510
RWRPR 
PUERTO RICO/U.S. VIRGIN ISLANDS HOURLY WEATHER ROUNDUP
NATIONAL WEATHER SERVICE SAN JUAN PR
1100 AM AST TUE JUN 18 2019

PRZ001>002-007>008-010-181600-
PUERTO RICO
  
CITY           SKY/WX    TMP DP  RH WIND       PRES   REMARKS
SAN JUAN LMM   MOSUNNY   86  75  70 E18G26    30.10S HX  95           
AGUADILLA      MOSUNNY   84  75  74 E16       30.11R HX  92           
CEIBA          CLOUDY    90  75  62 E12       30.12S HX 100           
$$

VIZ001>002-181600-
U.S. VIRGIN ISLANDS
  
CITY           SKY/WX    TMP DP  RH WIND       PRES   REMARKS
CHARLOTTE AMA  PTSUNNY   88  73  62 E16       30.09S HX  96           
CHRISTIANSTED  MOSUNNY   88  75  66 E21G26    30.10S HX  97           
$$

HOURLY WEATHER ROUNDUP FOR THE NEWS MEDIA
  
CITY           SKY/WX    TMP DP  RH WIND       PRES   REMARKS
ORLANDO        FAIR      85  73  67 S10       30.04S HX  91           
NEW YORK       CLOUDY    71  71 100 E6        29.94F                  
NEWARK         CLOUDY    74  70  87 SE5       29.93F                  
CHICAGO        FAIR      64  58  80 N3        29.97R                  
HARTFORD       CLOUDY    69  64  84 S8        29.98S                  
BOSTON         CLOUDY    69  61  75 E7        29.98S                  
DALLAS         PTSUNNY   83  69  62 SW10      29.92                   
PHILADELPHIA   CLOUDY    72  71  97 S5        29.92                   
LOS ANGELES    CLOUDY    64  57  78 CALM      29.95R                  
WASHINGTON DC  PTSUNNY   79  70  74 CALM      29.94S